Date String (YYYY-MM-DD hh:mm:ss) UTC,Instrument flags,Ambient pressure (hPa),Sample flow (lpm),Bypass flow (lpm),Sample temperature (°C),Ambient temperature (°C),ASC tube jacket temperature (°C),LED temperature (°C),Box temperature (°C),Sample RH (%),Span deviation,Mass concentration (μg/m³),Mass concentration (μg/m³),Mass concentration (μg/m³)
DateTimeUTC,F1_M11,P_M11,Q1_M11,Q2_M11,T1_M11,T2_M11,T3_M11,T4_M11,T5_M11,U1_M11,ZSPAN_M11,X2_M11,X0_M11,X1_M11
2021-12-02 16:00:00,,0828.7,5.00,0.00,29.9,29.1,00.0,38.7,31.6,07.3,0000.0,0000.79,0006.08,0000.28
2021-12-02 16:01:00,,0828.7,5.00,0.00,29.9,29.1,00.0,38.7,31.7,07.3,0000.0,0000.78,0006.12,0000.27
2021-12-02 16:02:00,,0828.7,4.99,0.00,29.9,29.1,00.0,38.8,31.7,07.3,0000.0,0000.84,0006.32,0000.27
2021-12-02 16:03:00,,0828.7,5.00,0.00,29.9,29.2,00.0,38.8,31.7,07.3,0000.0,0000.87,0006.33,0000.28
2021-12-02 16:04:00,,0828.7,5.01,0.00,29.9,29.2,00.0,38.8,31.7,07.3,0000.0,0000.90,0006.27,0000.27
2021-12-02 16:05:00,,0828.8,4.98,0.00,29.9,29.2,00.0,38.8,31.7,07.3,0000.0,0000.86,0005.45,0000.26
2021-12-02 16:06:00,,0829.1,4.99,0.00,30.0,29.2,00.0,38.9,31.7,07.2,0000.0,0000.84,0005.34,0000.26
2021-12-02 16:07:00,,0828.8,5.01,0.00,30.0,29.3,00.0,38.9,31.7,07.3,0000.0,0000.82,0005.63,0000.26
2021-12-02 16:08:00,,0829.0,4.99,0.00,30.0,29.3,00.0,38.9,31.8,07.3,0000.0,0000.82,0004.43,0000.26
2021-12-02 16:09:00,,0828.7,5.00,0.00,30.0,29.3,00.0,38.9,31.8,07.3,0000.0,0000.81,0004.31,0000.26
2021-12-02 16:10:00,,0828.8,5.01,0.00,30.0,29.3,00.0,38.9,31.8,07.3,0000.0,0000.83,0004.33,0000.26
2021-12-02 16:11:00,,0828.7,5.00,0.00,30.1,29.3,00.0,38.9,31.8,07.3,0000.0,0000.78,0003.20,0000.25
2021-12-02 16:12:00,,0828.7,4.99,0.00,30.1,29.3,00.0,39.0,31.9,07.3,0000.0,0000.75,0003.48,0000.25
2021-12-02 16:13:00,,0828.7,5.00,0.00,30.1,29.3,00.0,39.0,31.9,07.3,0000.0,0000.68,0003.72,0000.25
2021-12-02 16:14:00,,0828.7,5.00,0.00,30.1,29.4,00.0,39.0,31.9,07.4,0000.0,0000.67,0003.64,0000.25
2021-12-02 16:15:00,,0828.7,5.00,0.00,30.2,29.4,00.0,39.0,31.9,07.6,0000.0,0000.81,0004.38,0000.26
2021-12-02 16:16:00,,0828.7,4.99,0.00,30.2,29.4,00.0,39.0,32.0,07.4,0000.0,0000.88,0004.86,0000.27
2021-12-02 16:17:00,,0828.9,5.01,0.00,30.2,29.4,00.0,39.1,32.0,07.7,0000.0,0000.95,0005.94,0000.27
2021-12-02 16:18:00,,0828.9,5.01,0.00,30.2,29.4,00.0,39.1,32.0,07.8,0000.0,0000.95,0006.12,0000.27
2021-12-02 16:19:00,,0829.1,4.99,0.00,30.3,29.5,00.0,39.1,32.0,07.9,0000.0,0000.98,0006.90,0000.28
2021-12-02 16:20:00,,0829.2,5.01,0.00,30.3,29.5,00.0,39.1,32.0,07.8,0000.0,0001.06,0007.51,0000.29
2021-12-02 16:21:00,,0828.9,5.01,0.00,30.3,29.5,00.0,39.2,32.1,07.7,0000.0,0001.04,0007.42,0000.29
2021-12-02 16:22:00,,0829.2,4.99,0.00,30.3,29.6,00.0,39.2,32.1,07.6,0000.0,0001.03,0007.46,0000.29
2021-12-02 16:23:00,,0829.2,5.01,0.00,30.3,29.6,00.0,39.2,32.1,07.6,0000.0,0001.10,0008.00,0000.30
2021-12-02 16:24:00,,0829.2,5.00,0.00,30.4,29.6,00.0,39.2,32.1,07.6,0000.0,0001.15,0007.59,0000.31
2021-12-02 16:25:00,,0829.0,5.01,0.00,30.4,29.7,00.0,39.2,32.1,07.5,0000.0,0001.22,0007.78,0000.31
2021-12-02 16:26:00,,0828.8,4.99,0.00,30.4,29.7,00.0,39.3,32.2,07.4,0000.0,0001.07,0007.79,0000.30
2021-12-02 16:27:00,,0828.9,5.01,0.00,30.4,29.7,00.0,39.3,32.2,07.4,0000.0,0001.02,0007.81,0000.30
2021-12-02 16:28:00,,0828.7,5.00,0.00,30.4,29.7,00.0,39.3,32.2,07.5,0000.0,0000.93,0007.24,0000.29
2021-12-02 16:29:00,,0828.8,4.99,0.00,30.5,29.7,00.0,39.3,32.2,07.5,0000.0,0000.95,0008.06,0000.30
2021-12-02 16:30:00,,0828.7,5.01,0.00,30.5,29.8,00.0,39.3,32.2,07.4,0000.0,0000.94,0007.65,0000.30
2021-12-02 16:31:00,,0828.7,4.99,0.00,30.5,29.8,00.0,39.4,32.3,07.3,0000.0,0000.87,0007.40,0000.29
2021-12-02 16:32:00,,0828.8,5.00,0.00,30.5,29.8,00.0,39.4,32.3,07.6,0000.0,0000.87,0007.43,0000.29
2021-12-02 16:33:00,,0828.8,5.02,0.00,30.5,29.8,00.0,39.4,32.3,08.0,0000.0,0000.96,0008.16,0000.30
2021-12-02 16:34:00,,0828.9,5.00,0.00,30.6,29.9,00.0,39.4,32.3,08.0,0000.0,0001.11,0008.52,0000.31
2021-12-02 16:35:00,,0828.6,4.99,0.00,30.6,29.9,00.0,39.4,32.3,08.0,0000.0,0001.31,0009.04,0000.32
2021-12-02 16:36:00,,0828.8,5.00,0.00,30.6,29.9,00.0,39.5,32.3,08.0,0000.0,0001.44,0010.18,0000.35
2021-12-02 16:37:00,,0828.9,5.01,0.00,30.6,29.9,00.0,39.5,32.4,07.7,0000.0,0001.54,0010.32,0000.36
2021-12-02 16:38:00,,0829.0,4.98,0.00,30.6,29.9,00.0,39.5,32.4,07.8,0000.0,0001.62,0010.23,0000.37
2021-12-02 16:39:00,,0829.1,5.00,0.00,30.7,29.9,00.0,39.5,32.4,07.5,0000.0,0001.76,0011.25,0000.38
2021-12-02 16:40:00,,0829.0,4.99,0.00,30.7,30.0,00.0,39.6,32.4,07.6,0000.0,0001.87,0010.83,0000.39
2021-12-02 16:41:00,,0829.0,4.99,0.00,30.7,30.0,00.0,39.6,32.4,07.6,0000.0,0001.93,0010.65,0000.39
2021-12-02 16:42:00,,0829.1,5.00,0.00,30.7,30.0,00.0,39.6,32.5,07.4,0000.0,0001.96,0010.67,0000.39
2021-12-02 16:43:00,,0828.7,4.99,0.00,30.8,30.0,00.0,39.6,32.5,07.4,0000.0,0002.05,0012.45,0000.39
2021-12-02 16:44:00,,0828.7,5.01,0.00,30.8,30.0,00.0,39.6,32.5,07.5,0000.0,0002.07,0012.54,0000.39
2021-12-02 16:45:00,,0828.8,4.99,0.00,30.8,30.1,00.0,39.7,32.5,07.4,0000.0,0002.06,0012.93,0000.38
2021-12-02 16:46:00,,0828.9,5.00,0.00,30.8,30.1,00.0,39.7,32.6,07.4,0000.0,0001.95,0014.04,0000.37
2021-12-02 16:47:00,,0828.9,5.00,0.00,30.9,30.1,00.0,39.7,32.6,07.2,0000.0,0001.81,0013.13,0000.34
2021-12-02 16:48:00,,0828.9,5.01,0.00,30.9,30.1,00.0,39.7,32.6,06.7,0000.0,0001.69,0012.88,0000.33
2021-12-02 16:49:00,,0828.8,4.99,0.00,30.9,30.2,00.0,39.7,32.6,06.9,0000.0,0001.65,0013.88,0000.31
2021-12-02 16:50:00,,0828.8,5.01,0.00,30.9,30.2,00.0,39.8,32.7,07.2,0000.0,0001.60,0013.67,0000.31
2021-12-02 16:51:00,,0828.9,4.99,0.00,31.0,30.2,00.0,39.8,32.7,07.1,0000.0,0001.50,0013.55,0000.31
2021-12-02 16:52:00,,0828.7,5.01,0.00,31.0,30.2,00.0,39.8,32.7,07.2,0000.0,0001.47,0013.48,0000.31
2021-12-02 16:53:00,,0828.7,5.01,0.00,31.0,30.2,00.0,39.8,32.7,07.5,0000.0,0001.47,0013.38,0000.31
2021-12-02 16:54:00,,0828.8,4.99,0.00,31.0,30.3,00.0,39.9,32.7,07.7,0000.0,0001.47,0012.07,0000.32
2021-12-02 16:55:00,,0829.1,5.01,0.00,31.0,29.2,00.0,39.9,32.6,07.7,0000.0,0001.44,0012.13,0000.32
2021-12-02 16:56:00,,0828.7,4.99,0.00,30.9,27.2,00.0,39.8,32.1,08.1,0000.0,0001.40,0011.89,0000.32
2021-12-02 16:57:00,,0829.2,5.00,0.00,30.7,26.5,00.0,39.8,31.9,08.6,0000.0,0001.36,0010.30,0000.32
2021-12-02 16:58:00,,0828.7,5.01,0.00,30.6,26.9,00.0,39.7,31.9,08.6,0000.0,0001.42,0010.03,0000.34
2021-12-02 16:59:00,,0828.6,5.01,0.00,30.5,27.4,00.0,39.7,31.9,08.5,0000.0,0001.57,0010.38,0000.36
